Powrót do katalogu

STARLINK-31191

AktywnyŁącznośćVLEO
NORAD 58800·PAYLOAD·🇺🇸 United States

Wystrzelony Jan 15, 2024 z Cape Canaveral Space Force Station

Loading…

Następne Przeloty (najbliższe 24 godziny)

TLE

ŚwieżeSource: CelesTrak SupGP

Epoka: Sep 15, 2026, 03:09 UTC

1 58800C 24012P   26258.13173611 -.00006205  00000+0 -22478-3 0  2584
2 58800  43.0013 175.0991 0001178 272.1384  26.1780 15.27576684    16

Śledź STARLINK-31191 w czasie rzeczywistym z AllMySat

Download on the App Store